M I D A S
Marine Information and Data Acquisition System
Tripno 1329 of the Zeeleeuw from 2007-02-09 07:28:21 to 2007-02-09 17:44:42
Back to CruiseResearch ActivitiesStationsMapUnderway DataData graphs

EquipmentUnitsComments
TimeDGPSUTC
LatitudeDGPSDM.mWGS84
LongitudeDGPSDM.mWGS84
SpeedMeteo Stationm/sRelative wind speed
DirectionMeteo StationdegRelative wind direction
TemperatureMeteo Stationdeg CelciusAir temperature
PressureMeteo StationPaAtmospheric pressure
HumidityMeteo Station%Relative humidity
Missing or incorrect values are displayed as -999
Metereological data collected by the RV Zeeleeuw from 2007-02-09 07:11:29 to 2007-02-09 17:54:29
Time Latitude Longitude Speed Direction Temperature Pressure Humidity
2007-02-09 07:12 51°13.609 2°56.048 4 49 5.7 100140 79
2007-02-09 07:13 51°13.643 2°55.937 4.5 52 5.6 100150 79
2007-02-09 07:14 51°13.676 2°55.835 3.5 52 5.6 100150 79
2007-02-09 07:15 51°13.694 2°55.759 3 58 5.6 100160 78
2007-02-09 07:16 51°13.697 2°55.721 1.2 304 5.7 100160 78
2007-02-09 07:17 51°13.721 2°55.724 3.5 325 5.7 100160 78
2007-02-09 07:18 51°13.797 2°55.662 5.8 331 5.6 100160 75
2007-02-09 07:19 51°13.917 2°55.572 6.9 330 5.6 100150 72
2007-02-09 07:20 51°14.049 2°55.48 7.3 331 5.6 100160 71
2007-02-09 07:21 51°14.198 2°55.356 8.1 281 5.7 100160 70
2007-02-09 07:22 51°14.315 2°55.144 8.9 336 5.7 100160 68
2007-02-09 07:23 51°14.45 2°54.934 9.3 331 5.8 100160 68
2007-02-09 07:24 51°14.647 2°54.819 9.9 332 5.8 100160 67
2007-02-09 07:25 51°14.851 2°54.705 9.9 330 6 100160 69
2007-02-09 07:26 51°15.06 2°54.597 9.7 330 5.9 100160 68
2007-02-09 07:27 51°15.266 2°54.527 10.5 328 5.9 100170 69
2007-02-09 07:28 51°15.477 2°54.473 10.3 334 6 100170 68
2007-02-09 07:29 51°15.687 2°54.42 9.3 334 6 100160 68
2007-02-09 07:30 51°15.887 2°54.351 9.1 338 6 100160 69
2007-02-09 07:31 51°16.032 2°54.197 6.6 342 5.9 100160 68
2007-02-09 07:32 51°16.126 2°54.179 5.7 303 5.9 100170 67
2007-02-09 07:33 51°16.191 2°54.239 6.4 328 5.9 100170 67
2007-02-09 07:34 51°16.253 2°54.298 6.5 329 5.9 100170 69
2007-02-09 07:35 51°16.285 2°54.333 4 305 5.9 100170 68
2007-02-09 07:36 51°16.286 2°54.345 3.3 302 5.9 100180 69
2007-02-09 07:37 51°16.283 2°54.357 3.9 309 6 100180 71
2007-02-09 07:38 51°16.279 2°54.369 2.9 304 5.9 100190 71
2007-02-09 07:39 51°16.275 2°54.374 3.2 304 5.9 100190 71
2007-02-09 07:40 51°16.271 2°54.366 4.3 309 5.9 100190 69
2007-02-09 07:41 51°16.266 2°54.362 3.2 307 5.9 100190 69
2007-02-09 07:42 51°16.268 2°54.337 4.1 280 5.9 100190 70
2007-02-09 07:43 51°16.273 2°54.318 3.7 58 5.9 100190 68
2007-02-09 07:44 51°16.276 2°54.305 4 283 5.8 100190 68
2007-02-09 07:45 51°16.272 2°54.301 3.8 309 5.8 100190 69
2007-02-09 07:46 51°16.264 2°54.301 3.2 85 5.8 100190 68
2007-02-09 07:47 51°16.256 2°54.305 3.1 286 5.8 100190 68
2007-02-09 07:48 51°16.246 2°54.309 2.9 279 5.8 100200 68
2007-02-09 07:49 51°16.237 2°54.314 2.5 309 5.8 100200 68
2007-02-09 07:50 51°16.226 2°54.32 2.6 281 5.8 100210 68
2007-02-09 07:51 51°16.216 2°54.326 2.7 306 5.8 100210 67
2007-02-09 07:52 51°16.212 2°54.322 2.8 77 5.8 100210 67
2007-02-09 07:53 51°16.233 2°54.287 3.9 49 5.8 100220 68
2007-02-09 07:54 51°16.266 2°54.257 3.3 78 5.8 100220 67
2007-02-09 07:55 51°16.254 2°54.293 2.4 304 5.8 100220 66
2007-02-09 07:56 51°16.249 2°54.304 2.4 304 5.8 100220 67
2007-02-09 07:57 51°16.244 2°54.305 2.2 311 5.8 100230 67
2007-02-09 07:58 51°16.239 2°54.307 1.7 304 5.8 100230 67
2007-02-09 07:59 51°16.233 2°54.309 1.3 278 5.8 100230 67
2007-02-09 08:00 51°16.228 2°54.311 1.1 304 5.8 100240 67
2007-02-09 08:01 51°16.222 2°54.316 1.3 310 5.8 100230 67
2007-02-09 08:02 51°16.21 2°54.34 0.7 304 5.8 100230 68
2007-02-09 08:03 51°16.172 2°54.357 0.2 20 5.8 100240 69
2007-02-09 08:04 51°16.13 2°54.317 1.6 360 5.8 100250 68
2007-02-09 08:05 51°16.119 2°54.202 4 339 5.8 100250 68
2007-02-09 08:06 51°16.119 2°53.903 6.9 338 5.8 100250 67
2007-02-09 08:07 51°16.094 2°53.535 7.5 335 5.8 100250 68
2007-02-09 08:08 51°16.072 2°53.163 7.4 337 5.8 100240 67
2007-02-09 08:09 51°16.057 2°52.787 7.8 279 5.8 100240 67
2007-02-09 08:10 51°16.036 2°52.417 7.3 336 5.9 100220 66
2007-02-09 08:11 51°16.021 2°52.04 6.8 335 5.8 100220 67
2007-02-09 08:12 51°16.005 2°51.658 7.3 286 5.8 100260 67
2007-02-09 08:13 51°15.989 2°51.288 7.3 337 5.8 100270 67
2007-02-09 08:14 51°15.99 2°50.906 7.9 336 5.9 100250 67
2007-02-09 08:15 51°16.024 2°50.541 7.1 337 5.8 100270 67
2007-02-09 08:16 51°16.059 2°50.167 6.5 336 5.9 100260 68
2007-02-09 08:17 51°16.097 2°49.794 7.9 337 5.9 100270 67
2007-02-09 08:18 51°16.131 2°49.426 7.5 337 5.9 100260 68
2007-02-09 08:19 51°16.156 2°49.051 7 338 5.9 100230 68
2007-02-09 08:20 51°16.115 2°48.716 3.1 282 5.9 100230 68
2007-02-09 08:21 51°16.029 2°48.612 1.4 283 5.9 100270 67
2007-02-09 08:22 51°15.978 2°48.51 1.6 356 5.9 100280 67
2007-02-09 08:23 51°15.955 2°48.406 1.9 357 6 100280 68
2007-02-09 08:24 51°15.933 2°48.302 1.6 358 6 100280 69
2007-02-09 08:25 51°15.906 2°48.203 1.3 9 6 100290 69
2007-02-09 08:26 51°15.875 2°48.114 1.2 4 6 100290 68
2007-02-09 08:27 51°15.84 2°48.029 1.3 1 6 100290 68
2007-02-09 08:28 51°15.806 2°47.943 1.2 7 6 100290 68
2007-02-09 08:29 51°15.775 2°47.854 1.1 4 6 100290 68
2007-02-09 08:30 51°15.745 2°47.765 1.6 12 6 100300 68
2007-02-09 08:31 51°15.715 2°47.678 1.3 359 6 100300 68
2007-02-09 08:32 51°15.684 2°47.586 1.3 1 6.1 100290 68
2007-02-09 08:33 51°15.653 2°47.5 1.1 12 6.1 100300 67
2007-02-09 08:34 51°15.619 2°47.413 0.8 11 6.1 100300 68
2007-02-09 08:35 51°15.585 2°47.329 0.8 5 6.1 100300 69
2007-02-09 08:36 51°15.552 2°47.24 1 6 6.1 100290 68
2007-02-09 08:37 51°15.522 2°47.152 1.1 20 6.1 100290 67
2007-02-09 08:38 51°15.491 2°47.068 0.9 4 6.2 100290 67
2007-02-09 08:39 51°15.456 2°46.981 0.8 24 6.2 100290 68
2007-02-09 08:40 51°15.423 2°46.895 0.9 23 6.2 100290 68
2007-02-09 08:41 51°15.39 2°46.804 0.5 28 6.2 100290 68
2007-02-09 08:42 51°15.358 2°46.717 0.8 33 6.3 100280 68
2007-02-09 08:43 51°15.323 2°46.627 0.6 21 6.3 100290 68
2007-02-09 08:44 51°15.29 2°46.543 0.5 34 6.3 100290 68
2007-02-09 08:45 51°15.256 2°46.455 0.3 30 6.4 100290 68
2007-02-09 08:46 51°15.222 2°46.366 0.5 7 6.5 100300 69
2007-02-09 08:47 51°15.192 2°46.277 0.6 15 6.5 100300 68
2007-02-09 08:48 51°15.161 2°46.183 0.4 20 6.5 100300 68
2007-02-09 08:49 51°15.129 2°46.094 0.6 16 6.6 100300 67
2007-02-09 08:50 51°15.098 2°46.001 0.5 13 6.6 100310 67
2007-02-09 08:51 51°15.067 2°45.911 0.6 358 6.6 100300 67
2007-02-09 08:52 51°15.034 2°45.819 0.6 355 6.6 100310 68
2007-02-09 08:53 51°14.998 2°45.732 0.5 350 6.6 100310 67
2007-02-09 08:54 51°14.961 2°45.649 0.8 333 6.6 100310 67
2007-02-09 08:55 51°14.921 2°45.563 0.8 333 6.7 100310 67
2007-02-09 08:56 51°14.88 2°45.483 0.9 287 6.7 100320 67
2007-02-09 08:57 51°14.838 2°45.406 0.7 305 6.8 100320 66
2007-02-09 08:58 51°14.798 2°45.327 0.4 287 6.9 100320 67
2007-02-09 08:59 51°14.758 2°45.243 0.4 358 7 100320 66
2007-02-09 09:00 51°14.722 2°45.159 0.6 342 7.1 100330 65
2007-02-09 09:01 51°14.685 2°45.072 0.8 324 7.3 100330 65
2007-02-09 09:02 51°14.649 2°44.989 0.8 285 7.4 100330 65
2007-02-09 09:03 51°14.61 2°44.902 0.8 352 7.4 100320 63
2007-02-09 09:04 51°14.573 2°44.817 0.7 359 7.2 100320 63
2007-02-09 09:05 51°14.533 2°44.736 0.6 -999 7.1 100320 64
2007-02-09 09:06 51°14.49 2°44.654 0.4 355 7 100320 64
2007-02-09 09:07 51°14.449 2°44.576 0.3 359 7 100320 65
2007-02-09 09:08 51°14.405 2°44.495 0.5 346 7 100320 65
2007-02-09 09:09 51°14.364 2°44.417 0.6 339 7 100320 66
2007-02-09 09:10 51°14.321 2°44.334 0.8 278 7 100330 66
2007-02-09 09:11 51°14.279 2°44.254 0.8 346 7 100320 66
2007-02-09 09:12 51°14.238 2°44.174 0.8 356 6.9 100330 66
2007-02-09 09:13 51°14.196 2°44.093 0.9 1 6.9 100330 66
2007-02-09 09:14 51°14.157 2°44.012 0.9 12 6.8 100330 66
2007-02-09 09:15 51°14.116 2°43.928 0.9 20 6.8 100330 66
2007-02-09 09:16 51°14.075 2°43.847 0.9 22 6.7 100330 67
2007-02-09 09:17 51°14.034 2°43.766 1.9 17 6.7 100330 67
2007-02-09 09:18 51°13.991 2°43.685 1.9 20 6.6 100330 67
2007-02-09 09:19 51°13.95 2°43.605 1.1 14 6.5 100330 66
2007-02-09 09:20 51°13.91 2°43.522 1.5 6 6.4 100330 66
2007-02-09 09:21 51°13.871 2°43.441 1.2 11 6.4 100330 68
2007-02-09 09:22 51°13.829 2°43.359 1.4 13 6.4 100330 68
2007-02-09 09:23 51°13.788 2°43.28 1.4 17 6.4 100340 68
2007-02-09 09:24 51°13.745 2°43.2 0.9 14 6.4 100340 67
2007-02-09 09:25 51°13.703 2°43.121 1 12 6.4 100340 67
2007-02-09 09:26 51°13.66 2°43.045 0.6 21 6.4 100340 67
2007-02-09 09:27 51°13.616 2°42.969 0.6 25 6.4 100340 67
2007-02-09 09:28 51°13.573 2°42.891 0.6 18 6.4 100340 66
2007-02-09 09:29 51°13.54 2°42.801 1.3 18 6.4 100340 66
2007-02-09 09:30 51°13.528 2°42.7 1.9 7 6.4 100340 67
2007-02-09 09:31 51°13.531 2°42.602 2.1 6 6.4 100340 67
2007-02-09 09:32 51°13.539 2°42.506 2.6 2 6.3 100340 68
2007-02-09 09:33 51°13.56 2°42.42 3.4 353 6.3 100340 67
2007-02-09 09:34 51°13.589 2°42.354 3.1 351 6.2 100330 67
2007-02-09 09:35 51°13.608 2°42.298 2.4 356 6.2 100340 67
2007-02-09 09:36 51°13.62 2°42.251 2.3 349 6.1 100340 67
2007-02-09 09:37 51°13.63 2°42.197 2.1 360 6.2 100340 68
2007-02-09 09:38 51°13.621 2°42.11 1.2 20 6.1 100340 67
2007-02-09 09:39 51°13.566 2°42.054 1.5 306 6.2 100340 68
2007-02-09 09:40 51°13.526 2°42.146 5.4 324 6.3 100340 68
2007-02-09 09:41 51°13.53 2°42.432 8.4 325 6.4 100330 67
2007-02-09 09:42 51°13.552 2°42.773 8.7 328 6.4 100340 67
2007-02-09 09:43 51°13.574 2°43.103 8.9 329 6.4 100340 68
2007-02-09 09:44 51°13.59 2°43.441 10.3 334 6.4 100330 68
2007-02-09 09:45 51°13.605 2°43.771 9.1 336 6.3 100330 71
2007-02-09 09:46 51°13.622 2°44.092 9.1 336 6.2 100320 72
2007-02-09 09:47 51°13.632 2°44.43 9.3 337 6.2 100340 74
2007-02-09 09:48 51°13.645 2°44.762 8.7 286 6.1 100340 75
2007-02-09 09:49 51°13.605 2°45.094 8.5 283 6 100340 78
2007-02-09 09:50 51°13.52 2°45.377 9.3 332 5.9 100330 79
2007-02-09 09:51 51°13.297 2°45.385 8.2 303 5.8 100340 79
2007-02-09 09:52 51°13.129 2°45.118 7.7 304 5.7 100340 80
2007-02-09 09:53 51°12.961 2°44.832 8.7 284 5.7 100350 80
2007-02-09 09:54 51°12.798 2°44.54 8.7 304 5.7 100350 80
2007-02-09 09:55 51°12.641 2°44.248 8.1 282 5.7 100360 81
2007-02-09 09:56 51°12.479 2°43.952 8.3 303 5.7 100360 81
2007-02-09 09:57 51°12.31 2°43.683 9.8 281 5.7 100370 81
2007-02-09 09:58 51°12.115 2°43.445 9.7 327 5.7 100370 80
2007-02-09 09:59 51°11.924 2°43.221 8.6 281 5.7 100370 80
2007-02-09 10:00 51°11.74 2°43.008 9.1 327 5.7 100370 80
2007-02-09 10:01 51°11.548 2°42.782 10 285 5.7 100370 82
2007-02-09 10:02 51°11.358 2°42.548 10 330 5.7 100370 82
2007-02-09 10:03 51°11.223 2°42.32 6.5 304 5.6 100380 83
2007-02-09 10:04 51°11.166 2°42.168 5.3 330 5.5 100390 83
2007-02-09 10:05 51°11.118 2°42.093 4.3 281 5.5 100390 84
2007-02-09 10:06 51°11.106 2°42.06 2.6 352 5.4 100390 84
2007-02-09 10:07 51°11.104 2°42.033 2.9 354 5.4 100390 84
2007-02-09 10:08 51°11.1 2°42.007 3.2 358 5.3 100390 85
2007-02-09 10:09 51°11.095 2°41.984 3 358 5.2 100400 86
2007-02-09 10:10 51°11.088 2°41.961 2.9 8 5.2 100390 86
2007-02-09 10:11 51°11.075 2°41.952 3.6 10 5.2 100390 87
2007-02-09 10:12 51°11.078 2°41.994 1.6 40 5.1 100400 87
2007-02-09 10:13 51°11.098 2°42.049 2.8 23 5.1 100400 87
2007-02-09 10:14 51°11.106 2°42.1 2 37 5.2 100400 87
2007-02-09 10:15 51°11.119 2°42.112 2.2 80 5.2 100400 87
2007-02-09 10:16 51°11.129 2°42.111 2.7 58 5.2 100400 87
2007-02-09 10:17 51°11.136 2°42.105 2.5 54 5.1 100400 86
2007-02-09 10:18 51°11.141 2°42.096 2.3 56 5.1 100400 86
2007-02-09 10:19 51°11.139 2°42.08 3.6 50 5.1 100400 87
2007-02-09 10:20 51°11.136 2°42.062 3.3 49 5 100410 86
2007-02-09 10:21 51°11.133 2°42.044 4.1 38 5 100400 87
2007-02-09 10:22 51°11.131 2°42.027 3.9 36 5 100410 87
2007-02-09 10:23 51°11.127 2°42.009 3.6 30 5 100410 87
2007-02-09 10:24 51°11.117 2°42.02 4.1 2 5.1 100410 87
2007-02-09 10:25 51°11.101 2°42.068 4.8 22 5 100410 86
2007-02-09 10:26 51°11.108 2°42.093 4.1 38 4.8 100410 86
2007-02-09 10:27 51°11.115 2°42.104 3.5 37 4.8 100410 87
2007-02-09 10:28 51°11.12 2°42.108 3.1 37 4.7 100420 87
2007-02-09 10:29 51°11.122 2°42.108 3.5 32 4.7 100410 87
2007-02-09 10:30 51°11.122 2°42.104 3 25 4.7 100410 88
2007-02-09 10:31 51°11.12 2°42.097 3.4 29 4.7 100400 88
2007-02-09 10:32 51°11.115 2°42.087 3.8 25 4.7 100410 88
2007-02-09 10:33 51°11.109 2°42.074 3 21 4.7 100410 88
2007-02-09 10:34 51°11.103 2°42.06 3.1 22 4.6 100410 88
2007-02-09 10:35 51°11.097 2°42.044 3.1 19 4.6 100410 88
2007-02-09 10:36 51°11.09 2°42.027 3.1 20 4.7 100420 88
2007-02-09 10:37 51°11.084 2°42.009 3.1 21 4.7 100420 88
2007-02-09 10:38 51°11.078 2°41.998 2.7 29 4.7 100420 88
2007-02-09 10:39 51°11.092 2°42.031 2.6 23 4.7 100420 88
2007-02-09 10:40 51°11.103 2°42.087 1.9 33 4.7 100420 88
2007-02-09 10:41 51°11.117 2°42.099 2.5 45 4.7 100420 88
2007-02-09 10:42 51°11.128 2°42.099 2.5 80 4.7 100430 88
2007-02-09 10:43 51°11.141 2°42.095 1.7 77 4.7 100420 88
2007-02-09 10:44 51°11.227 2°42.154 3.4 333 4.7 100410 88
2007-02-09 10:45 51°11.383 2°42.338 4.7 286 4.7 100410 88
2007-02-09 10:46 51°11.545 2°42.556 5.3 339 4.7 100410 88
2007-02-09 10:47 51°11.705 2°42.767 4.8 280 4.7 100410 88
2007-02-09 10:48 51°11.864 2°42.972 5.3 340 4.8 100420 88
2007-02-09 10:49 51°12.015 2°43.193 5.3 286 4.8 100420 88
2007-02-09 10:50 51°12.163 2°43.429 5.4 343 4.8 100420 88
2007-02-09 10:51 51°12.308 2°43.674 4.9 286 4.8 100430 88
2007-02-09 10:52 51°12.457 2°43.919 5.2 285 4.9 100420 88
2007-02-09 10:53 51°12.602 2°44.159 5 341 5 100420 89
2007-02-09 10:54 51°12.746 2°44.399 5 286 5 100430 89
2007-02-09 10:55 51°12.889 2°44.633 4.7 344 5 100420 89
2007-02-09 10:56 51°13.035 2°44.869 5.4 281 4.9 100430 89
2007-02-09 10:57 51°13.184 2°45.106 4.6 286 4.9 100430 90
2007-02-09 10:58 51°13.336 2°45.326 3.9 340 4.9 100430 90
2007-02-09 10:59 51°13.538 2°45.351 4.3 309 4.9 100430 90
2007-02-09 11:00 51°13.678 2°45.131 7.5 283 4.9 100430 90
2007-02-09 11:01 51°13.686 2°44.766 9 306 5 100430 90
2007-02-09 11:02 51°13.661 2°44.384 8.5 282 5 100430 90
2007-02-09 11:03 51°13.637 2°44.007 8.6 283 5.1 100430 91
2007-02-09 11:04 51°13.663 2°43.649 6.7 283 5.2 100430 90
2007-02-09 11:05 51°13.794 2°43.342 7.1 304 5.2 100430 90
2007-02-09 11:06 51°13.917 2°43.027 6.7 282 5.2 100430 90
2007-02-09 11:07 51°14.041 2°42.708 6.7 306 5.2 100430 90
2007-02-09 11:08 51°14.168 2°42.394 7.1 284 5.2 100430 89
2007-02-09 11:09 51°14.319 2°42.114 5.6 281 5.2 100430 89
2007-02-09 11:10 51°14.497 2°41.874 5.8 303 5.3 100430 89
2007-02-09 11:11 51°14.685 2°41.674 5.8 304 5.3 100430 90
2007-02-09 11:12 51°14.884 2°41.507 4.8 322 5.4 100430 90
2007-02-09 11:13 51°15.09 2°41.377 4.8 309 5.4 100440 89
2007-02-09 11:14 51°15.3 2°41.279 3.9 323 5.4 100450 89
2007-02-09 11:15 51°15.514 2°41.228 4.4 281 5.5 100440 89
2007-02-09 11:16 51°15.725 2°41.175 3.9 306 5.5 100440 89
2007-02-09 11:17 51°15.941 2°41.12 3.9 323 5.6 100440 89
2007-02-09 11:18 51°16.153 2°41.064 3.5 286 5.6 100440 88
2007-02-09 11:19 51°16.291 2°41.021 1.5 307 5.7 100440 88
2007-02-09 11:20 51°16.404 2°40.994 0.6 302 5.7 100450 88
2007-02-09 11:21 51°16.473 2°41.063 1.4 30 5.8 100440 88
2007-02-09 11:22 51°16.569 2°41.12 1.3 17 5.9 100450 87
2007-02-09 11:23 51°16.643 2°41.174 1.7 21 5.9 100450 86
2007-02-09 11:24 51°16.701 2°41.231 2.3 27 5.9 100460 86
2007-02-09 11:25 51°16.735 2°41.283 2.8 27 5.9 100440 86
2007-02-09 11:26 51°16.742 2°41.313 3.2 32 5.9 100440 85
2007-02-09 11:27 51°16.74 2°41.32 3.4 28 5.9 100440 85
2007-02-09 11:28 51°16.73 2°41.29 3.6 30 5.9 100450 85
2007-02-09 11:29 51°16.72 2°41.253 3.1 29 5.8 100450 84
2007-02-09 11:30 51°16.716 2°41.247 2.6 43 5.8 100450 84
2007-02-09 11:31 51°16.725 2°41.265 2.9 24 5.8 100450 84
2007-02-09 11:32 51°16.734 2°41.291 1.7 57 5.9 100460 85
2007-02-09 11:33 51°16.751 2°41.305 2.6 38 5.9 100460 85
2007-02-09 11:34 51°16.751 2°41.309 3.3 33 5.8 100450 85
2007-02-09 11:35 51°16.744 2°41.304 2.6 26 5.8 100470 84
2007-02-09 11:36 51°16.735 2°41.294 3.4 27 5.8 100460 84
2007-02-09 11:37 51°16.726 2°41.282 3 25 5.8 100460 85
2007-02-09 11:38 51°16.716 2°41.267 2.9 33 5.8 100460 85
2007-02-09 11:39 51°16.708 2°41.253 2.6 34 5.8 100460 85
2007-02-09 11:40 51°16.762 2°41.276 1.5 336 5.8 100460 85
2007-02-09 11:41 51°16.921 2°41.328 3.4 281 5.8 100450 85
2007-02-09 11:42 51°17.037 2°41.391 0.8 326 5.8 100460 85
2007-02-09 11:43 51°17.104 2°41.401 0.9 74 5.9 100460 85
2007-02-09 11:44 51°17.125 2°41.409 2.1 50 5.9 100460 85
2007-02-09 11:45 51°17.133 2°41.4 2 42 5.9 100460 85
2007-02-09 11:46 51°17.138 2°41.4 2.3 32 5.9 100460 85
2007-02-09 11:47 51°17.131 2°41.402 2.4 16 5.9 100450 85
2007-02-09 11:48 51°17.12 2°41.413 2.5 13 5.8 100460 84
2007-02-09 11:49 51°17.108 2°41.409 2.4 15 5.8 100460 84
2007-02-09 11:50 51°17.094 2°41.398 2.6 9 5.8 100460 84
2007-02-09 11:51 51°17.08 2°41.386 2.4 14 5.8 100460 84
2007-02-09 11:52 51°17.063 2°41.394 2.3 9 5.8 100460 84
2007-02-09 11:53 51°17.043 2°41.435 3.5 356 5.8 100460 84
2007-02-09 11:54 51°16.989 2°41.518 5 343 5.8 100450 84
2007-02-09 11:55 51°16.913 2°41.565 5 345 5.7 100450 85
2007-02-09 11:56 51°16.847 2°41.6 4.3 343 5.6 100450 85
2007-02-09 11:57 51°16.78 2°41.621 4.1 341 5.6 100470 86
2007-02-09 11:58 51°16.712 2°41.629 3.7 334 5.6 100460 86
2007-02-09 11:59 51°16.644 2°41.625 3.2 336 5.6 100460 85
2007-02-09 12:00 51°16.578 2°41.622 3.6 338 5.7 100460 84
2007-02-09 12:01 51°16.511 2°41.616 3.8 332 5.8 100470 84
2007-02-09 12:02 51°16.445 2°41.584 3.6 327 5.8 100470 85
2007-02-09 12:03 51°16.384 2°41.522 3.7 320 5.9 100460 85
2007-02-09 12:04 51°16.33 2°41.447 3.8 322 5.9 100470 85
2007-02-09 12:05 51°16.281 2°41.362 3.6 316 5.9 100470 85
2007-02-09 12:06 51°16.241 2°41.28 3.9 38 5.9 100470 85
2007-02-09 12:07 51°16.211 2°41.211 3.7 36 6 100470 84
2007-02-09 12:08 51°16.186 2°41.149 3.4 34 5.9 100480 84
2007-02-09 12:09 51°16.162 2°41.088 3.4 30 6 100480 84
2007-02-09 12:10 51°16.135 2°41.021 3.2 37 5.9 100480 84
2007-02-09 12:11 51°16.106 2°40.951 3.5 33 6 100480 84
2007-02-09 12:12 51°16.075 2°40.881 3.7 33 6 100480 84
2007-02-09 12:13 51°16.041 2°40.811 4 38 6 100470 84
2007-02-09 12:14 51°16.007 2°40.743 3.8 37 6 100480 84
2007-02-09 12:15 51°15.973 2°40.672 3.7 32 5.9 100480 84
2007-02-09 12:16 51°15.941 2°40.604 3.8 36 5.9 100480 84
2007-02-09 12:17 51°15.908 2°40.535 3.8 36 5.9 100480 84
2007-02-09 12:18 51°15.875 2°40.466 3.8 36 5.9 100470 84
2007-02-09 12:19 51°15.841 2°40.393 3.7 30 5.9 100470 84
2007-02-09 12:20 51°15.81 2°40.326 4 233 5.9 100480 84
2007-02-09 12:21 51°15.777 2°40.258 4.3 39 5.9 100470 84
2007-02-09 12:22 51°15.744 2°40.19 4.4 33 5.9 100470 84
2007-02-09 12:23 51°15.712 2°40.122 4.5 31 5.9 100470 84
2007-02-09 12:24 51°15.68 2°40.053 4.5 38 5.9 100470 84
2007-02-09 12:25 51°15.648 2°39.986 4.5 33 5.9 100470 84
2007-02-09 12:26 51°15.616 2°39.918 4.2 35 5.9 100470 85
2007-02-09 12:27 51°15.584 2°39.848 3.8 31 5.9 100470 85
2007-02-09 12:28 51°15.551 2°39.782 4 32 5.8 100470 85
2007-02-09 12:29 51°15.516 2°39.712 4.5 38 5.8 100470 85
2007-02-09 12:30 51°15.485 2°39.648 4 280 5.8 100470 85
2007-02-09 12:31 51°15.454 2°39.58 4.3 31 5.8 100460 86
2007-02-09 12:32 51°15.421 2°39.513 3.9 32 5.8 100470 86
2007-02-09 12:33 51°15.39 2°39.443 3.8 234 5.7 100460 87
2007-02-09 12:34 51°15.362 2°39.37 4 240 5.7 100460 86
2007-02-09 12:35 51°15.339 2°39.295 3.4 247 5.7 100460 87
2007-02-09 12:36 51°15.321 2°39.222 4 246 5.7 100460 87
2007-02-09 12:37 51°15.307 2°39.148 3 247 5.8 100450 87
2007-02-09 12:38 51°15.297 2°39.073 4.1 257 5.8 100460 86
2007-02-09 12:39 51°15.292 2°38.998 2.3 267 5.7 100460 86
2007-02-09 12:40 51°15.298 2°38.937 2.8 33 5.7 100460 86
2007-02-09 12:41 51°15.305 2°38.882 2 32 5.7 100450 85
2007-02-09 12:42 51°15.331 2°38.84 0.8 32 5.6 100460 85
2007-02-09 12:43 51°15.354 2°38.83 2.2 32 5.7 100460 85
2007-02-09 12:44 51°15.361 2°38.854 2.2 16 5.7 100450 85
2007-02-09 12:45 51°15.369 2°38.891 2.6 11 5.7 100460 85
2007-02-09 12:46 51°15.384 2°38.933 3 9 5.6 100460 84
2007-02-09 12:47 51°15.396 2°38.985 2.3 9 5.6 100460 84
2007-02-09 12:48 51°15.412 2°39.036 3.1 4 5.6 100460 85
2007-02-09 12:49 51°15.447 2°39.125 4.8 349 5.6 100460 86
2007-02-09 12:50 51°15.51 2°39.331 5.4 347 5.6 100460 85
2007-02-09 12:51 51°15.565 2°39.542 5.1 347 5.5 100450 85
2007-02-09 12:52 51°15.63 2°39.756 5.6 347 5.5 100450 86
2007-02-09 12:53 51°15.671 2°39.919 3.8 353 5.5 100460 85
2007-02-09 12:54 51°15.696 2°40.015 3 359 5.5 100470 85
2007-02-09 12:55 51°15.7 2°40.035 2.5 31 5.5 100460 86
2007-02-09 12:56 51°15.699 2°40.028 2.3 37 5.5 100470 86
2007-02-09 12:57 51°15.695 2°40.017 2.6 30 5.6 100460 86
2007-02-09 12:58 51°15.692 2°40.007 2.4 26 5.6 100470 86
2007-02-09 12:59 51°15.688 2°40 2.4 19 5.6 100470 86
2007-02-09 13:00 51°15.681 2°39.995 2.6 16 5.6 100470 86
2007-02-09 13:01 51°15.665 2°40.021 3.1 353 5.6 100470 86
2007-02-09 13:02 51°15.663 2°40.071 2.4 7 5.6 100480 86
2007-02-09 13:03 51°15.707 2°40.071 0.9 38 5.6 100480 86
2007-02-09 13:04 51°15.733 2°40.044 1.3 38 5.6 100480 85
2007-02-09 13:05 51°15.735 2°40.017 1.3 53 5.6 100480 85
2007-02-09 13:06 51°15.726 2°39.998 2.5 33 5.6 100480 85
2007-02-09 13:07 51°15.706 2°39.99 1.9 56 5.7 100470 85
2007-02-09 13:08 51°15.689 2°39.981 2.6 30 5.7 100470 85
2007-02-09 13:09 51°15.673 2°39.971 1.9 55 5.7 100470 84
2007-02-09 13:10 51°15.658 2°39.96 2.6 36 5.7 100470 85
2007-02-09 13:11 51°15.643 2°39.95 2.6 49 5.6 100460 85
2007-02-09 13:12 51°15.633 2°39.928 1.3 75 5.6 100460 85
2007-02-09 13:13 51°15.661 2°39.887 2.2 8 5.6 100470 85
2007-02-09 13:14 51°15.696 2°39.938 3.5 349 5.6 100470 85
2007-02-09 13:15 51°15.723 2°40.017 2.8 356 5.6 100470 86
2007-02-09 13:16 51°15.716 2°40.015 2.8 351 5.6 100460 86
2007-02-09 13:17 51°15.705 2°40.007 2.6 346 5.5 100470 85
2007-02-09 13:18 51°15.695 2°39.997 2.6 282 5.5 100460 85
2007-02-09 13:19 51°15.683 2°39.986 2.3 333 5.6 100460 85
2007-02-09 13:20 51°15.67 2°39.972 2.4 332 5.6 100460 85
2007-02-09 13:21 51°15.657 2°39.96 2.1 280 5.6 100460 85
2007-02-09 13:22 51°15.644 2°39.948 2.7 338 5.7 100460 85
2007-02-09 13:23 51°15.644 2°39.993 3.4 -999 5.7 100450 84
2007-02-09 13:24 51°15.691 2°39.993 2.1 15 5.6 100460 85
2007-02-09 13:25 51°15.71 2°39.967 2.2 56 5.6 100470 85
2007-02-09 13:26 51°15.703 2°39.952 2.4 35 5.6 100470 85
2007-02-09 13:27 51°15.695 2°39.936 1.6 40 5.6 100460 85
2007-02-09 13:28 51°15.685 2°39.919 1.7 37 5.5 100460 85
2007-02-09 13:29 51°15.678 2°39.896 1.8 39 5.7 100450 86
2007-02-09 13:30 51°15.714 2°39.867 3.8 352 5.8 100460 86
2007-02-09 13:31 51°15.854 2°39.989 7.6 343 5.7 100450 86
2007-02-09 13:32 51°16.038 2°40.154 8 340 5.6 100440 85
2007-02-09 13:33 51°16.226 2°40.311 6.9 340 5.7 100450 85
2007-02-09 13:34 51°16.415 2°40.466 7.8 287 5.6 100450 85
2007-02-09 13:35 51°16.605 2°40.623 7 342 5.6 100450 84
2007-02-09 13:36 51°16.795 2°40.779 7.7 343 5.6 100460 84
2007-02-09 13:37 51°16.985 2°40.936 7.9 341 5.6 100440 83
2007-02-09 13:38 51°17.177 2°41.093 8.5 344 5.6 100440 83
2007-02-09 13:39 51°17.367 2°41.247 7.5 282 5.6 100450 82
2007-02-09 13:40 51°17.555 2°41.401 8.6 341 5.6 100400 83
2007-02-09 13:41 51°17.747 2°41.558 8 343 5.7 100440 84
2007-02-09 13:42 51°17.938 2°41.716 8.3 341 5.6 100450 84
2007-02-09 13:43 51°18.13 2°41.874 8.9 342 5.6 100430 84
2007-02-09 13:44 51°18.32 2°42.036 8.2 342 5.6 100420 84
2007-02-09 13:45 51°18.511 2°42.198 8.1 344 5.6 100440 84
2007-02-09 13:46 51°18.702 2°42.356 8.5 343 5.7 100450 84
2007-02-09 13:47 51°18.893 2°42.517 8.6 343 5.7 100430 84
2007-02-09 13:48 51°19.083 2°42.677 8.8 281 5.7 100450 83
2007-02-09 13:49 51°19.27 2°42.836 8.9 343 5.7 100420 83
2007-02-09 13:50 51°19.458 2°42.996 8.3 343 5.7 100440 83
2007-02-09 13:51 51°19.646 2°43.157 7.7 343 5.7 100430 83
2007-02-09 13:52 51°19.835 2°43.319 8.7 343 5.7 100430 84
2007-02-09 13:53 51°20.023 2°43.481 9.1 344 5.7 100440 83
2007-02-09 13:54 51°20.211 2°43.641 8.3 343 5.7 100430 83
2007-02-09 13:55 51°20.404 2°43.802 9.5 344 5.7 100430 83
2007-02-09 13:56 51°20.595 2°43.965 9.1 286 5.8 100420 83
2007-02-09 13:57 51°20.787 2°44.131 9 341 5.7 100440 83
2007-02-09 13:58 51°20.981 2°44.298 8.2 283 5.7 100430 83
2007-02-09 13:59 51°21.173 2°44.462 7.5 343 5.7 100430 82
2007-02-09 14:00 51°21.371 2°44.633 9 282 5.7 100440 81
2007-02-09 14:01 51°21.566 2°44.805 8.8 341 5.7 100440 82
2007-02-09 14:02 51°21.759 2°44.97 8.7 285 5.8 100450 82
2007-02-09 14:03 51°21.954 2°45.115 8.6 343 5.8 100450 82
2007-02-09 14:04 51°22.147 2°45.267 7.7 286 5.7 100450 81
2007-02-09 14:05 51°22.344 2°45.416 7.8 343 5.8 100470 80
2007-02-09 14:06 51°22.541 2°45.549 8.6 341 5.8 100470 80
2007-02-09 14:07 51°22.746 2°45.686 8 342 5.8 100470 80
2007-02-09 14:08 51°22.947 2°45.817 8.1 280 5.8 100480 80
2007-02-09 14:09 51°23.15 2°45.95 8 339 5.8 100480 80
2007-02-09 14:10 51°23.352 2°46.087 8.1 285 5.8 100470 80
2007-02-09 14:11 51°23.484 2°46.34 9.4 336 5.9 100450 80
2007-02-09 14:12 51°23.571 2°46.661 10.5 282 5.9 100470 79
2007-02-09 14:13 51°23.673 2°46.962 9.2 338 5.9 100470 79
2007-02-09 14:14 51°23.781 2°47.261 9.1 282 5.9 100460 80
2007-02-09 14:15 51°23.889 2°47.561 10 336 5.8 100450 79
2007-02-09 14:16 51°23.995 2°47.861 10.2 278 5.9 100460 80
2007-02-09 14:17 51°24.099 2°48.167 9.5 339 5.9 100460 80
2007-02-09 14:18 51°24.206 2°48.469 10.5 286 5.9 100450 80
2007-02-09 14:19 51°24.308 2°48.773 11.2 284 5.9 100470 80
2007-02-09 14:20 51°24.397 2°49.038 8 342 5.9 100430 80
2007-02-09 14:21 51°24.433 2°49.143 5.2 280 5.9 100460 80
2007-02-09 14:22 51°24.44 2°49.129 3.7 302 5.9 100470 80
2007-02-09 14:23 51°24.448 2°49.097 4 305 5.9 100480 80
2007-02-09 14:24 51°24.44 2°49.117 4.5 282 5.9 100470 80
2007-02-09 14:25 51°24.432 2°49.131 4.3 310 5.9 100460 79
2007-02-09 14:26 51°24.426 2°49.134 4.3 308 5.9 100460 80
2007-02-09 14:27 51°24.41 2°49.136 4.9 304 5.9 100460 80
2007-02-09 14:28 51°24.4 2°49.128 5.3 282 6 100450 80
2007-02-09 14:29 51°24.39 2°49.079 2 53 6 100460 79
2007-02-09 14:30 51°24.402 2°49.022 4.5 80 6 100470 79
2007-02-09 14:31 51°24.394 2°49.046 4.7 40 6 100470 80
2007-02-09 14:32 51°24.411 2°49.023 5.5 18 5.9 100460 80
2007-02-09 14:33 51°24.431 2°49.012 5.2 16 5.9 100460 80
2007-02-09 14:34 51°24.442 2°49.003 5 19 5.9 100460 79
2007-02-09 14:35 51°24.449 2°48.995 5.1 22 5.9 100450 79
2007-02-09 14:36 51°24.464 2°48.992 5.1 357 6 100450 80
2007-02-09 14:37 51°24.488 2°49.027 6.7 331 6 100450 80
2007-02-09 14:38 51°24.481 2°49.083 6.4 284 5.9 100450 79
2007-02-09 14:39 51°24.454 2°49.104 5.8 305 6 100450 79
2007-02-09 14:40 51°24.426 2°49.091 4.4 282 6 100440 79
2007-02-09 14:41 51°24.408 2°49.068 6 55 6.1 100450 78
2007-02-09 14:42 51°24.402 2°49.052 6.5 32 6 100450 77
2007-02-09 14:43 51°24.395 2°49.032 5.3 58 6 100450 77
2007-02-09 14:44 51°24.386 2°49.012 4.7 36 6 100450 77
2007-02-09 14:45 51°24.378 2°48.993 7 57 6 100450 76
2007-02-09 14:46 51°24.371 2°48.978 6.6 285 6 100450 76
2007-02-09 14:47 51°24.363 2°48.966 5.1 264 6 100440 76
2007-02-09 14:48 51°24.326 2°48.933 4.9 308 6 100460 76
2007-02-09 14:49 51°24.265 2°48.834 3.1 265 6.1 100450 77
2007-02-09 14:50 51°24.211 2°48.748 5.6 306 6.1 100440 77
2007-02-09 14:51 51°24.173 2°48.69 4.4 80 6.1 100440 78
2007-02-09 14:52 51°24.142 2°48.631 6.4 52 6.1 100440 79
2007-02-09 14:53 51°24.114 2°48.567 6.4 78 6.1 100440 79
2007-02-09 14:54 51°24.092 2°48.488 3.5 55 6 100420 79
2007-02-09 14:55 51°24.071 2°48.402 4.5 80 6 100420 78
2007-02-09 14:56 51°24.042 2°48.322 4.6 52 6 100430 78
2007-02-09 14:57 51°24.014 2°48.243 6.1 82 6 100430 78
2007-02-09 14:58 51°23.981 2°48.169 6.7 57 6 100430 79
2007-02-09 14:59 51°23.953 2°48.093 3.3 75 6 100430 78
2007-02-09 15:00 51°23.933 2°48.012 5.5 52 6.1 100430 79
2007-02-09 15:01 51°23.905 2°47.937 6.4 80 6 100420 76
2007-02-09 15:02 51°23.873 2°47.86 5.3 52 6 100430 76
2007-02-09 15:03 51°23.845 2°47.781 6.1 74 6 100420 76
2007-02-09 15:04 51°23.829 2°47.693 5.8 55 6 100420 77
2007-02-09 15:05 51°23.803 2°47.615 5.5 78 6 100410 76
2007-02-09 15:06 51°23.776 2°47.537 5.1 57 6 100420 76
2007-02-09 15:07 51°23.751 2°47.453 4.2 78 5.9 100420 76
2007-02-09 15:08 51°23.727 2°47.373 6.9 55 6 100410 77
2007-02-09 15:09 51°23.695 2°47.299 5.4 55 6 100410 77
2007-02-09 15:10 51°23.672 2°47.219 3.8 57 6 100420 76
2007-02-09 15:11 51°23.649 2°47.143 5.7 76 6.1 100420 76
2007-02-09 15:12 51°23.619 2°47.073 6.9 50 6.1 100420 77
2007-02-09 15:13 51°23.583 2°47.007 4.9 79 6.1 100420 77
2007-02-09 15:14 51°23.555 2°46.932 5.6 57 6.1 100420 77
2007-02-09 15:15 51°23.534 2°46.853 6.8 78 6 100430 78
2007-02-09 15:16 51°23.53 2°46.766 7.1 55 6.1 100430 78
2007-02-09 15:17 51°23.555 2°46.687 8.1 28 6.1 100420 77
2007-02-09 15:18 51°23.597 2°46.627 9 31 6.1 100420 77
2007-02-09 15:19 51°23.646 2°46.587 9.4 21 6 100420 77
2007-02-09 15:20 51°23.702 2°46.569 10.4 11 6 100420 78
2007-02-09 15:21 51°23.765 2°46.583 7.5 354 6 100410 78
2007-02-09 15:22 51°23.816 2°46.622 9.1 349 6 100420 79
2007-02-09 15:23 51°23.868 2°46.673 10.4 350 6 100440 77
2007-02-09 15:24 51°23.967 2°46.752 12.7 347 6 100420 77
2007-02-09 15:25 51°24.162 2°46.914 14.6 344 5.9 100420 77
2007-02-09 15:26 51°24.371 2°47.095 14.6 345 6 100430 78
2007-02-09 15:27 51°24.578 2°47.268 14.9 345 6 100410 77
2007-02-09 15:28 51°24.797 2°47.45 14.5 344 6 100400 76
2007-02-09 15:29 51°25.002 2°47.63 14.6 282 6 100430 77
2007-02-09 15:30 51°25.213 2°47.814 14.9 343 6 100400 77
2007-02-09 15:31 51°25.424 2°47.993 15.4 278 6 100440 77
2007-02-09 15:32 51°25.632 2°48.183 14.4 342 6 100430 77
2007-02-09 15:33 51°25.795 2°48.326 10.7 348 6 100430 76
2007-02-09 15:34 51°25.92 2°48.429 12 349 6 100420 76
2007-02-09 15:35 51°26.02 2°48.519 10.2 279 6 100420 77
2007-02-09 15:36 51°26.038 2°48.533 8.8 350 6 100430 76
2007-02-09 15:37 51°26.048 2°48.536 9 354 6 100420 78
2007-02-09 15:38 51°26.055 2°48.536 6.7 6 6 100410 78
2007-02-09 15:39 51°26.062 2°48.539 8.9 17 6 100410 78
2007-02-09 15:40 51°26.07 2°48.548 10.1 25 6 100410 78
2007-02-09 15:41 51°26.079 2°48.557 10.3 30 5.9 100410 77
2007-02-09 15:42 51°26.1 2°48.531 6.9 56 5.9 100410 77
2007-02-09 15:43 51°26.078 2°48.479 7.3 286 5.9 100430 77
2007-02-09 15:44 51°26.021 2°48.488 7.2 310 5.9 100410 77
2007-02-09 15:45 51°25.98 2°48.504 9.4 282 6 100400 78
2007-02-09 15:46 51°25.975 2°48.519 11.1 302 6 100430 78
2007-02-09 15:47 51°25.976 2°48.534 9.4 282 6 100430 79
2007-02-09 15:48 51°26.004 2°48.536 7.4 285 6 100430 80
2007-02-09 15:49 51°26.011 2°48.544 9.8 305 6 100430 80
2007-02-09 15:50 51°26.018 2°48.554 9.9 286 6 100410 80
2007-02-09 15:51 51°26.023 2°48.568 12.1 305 6 100410 81
2007-02-09 15:52 51°26.031 2°48.582 10.6 286 6 100410 81
2007-02-09 15:53 51°26.041 2°48.593 8.5 305 5.9 100400 80
2007-02-09 15:54 51°26.051 2°48.603 9.3 280 5.9 100410 80
2007-02-09 15:55 51°26.062 2°48.614 9.3 252 6 100400 80
2007-02-09 15:56 51°26.073 2°48.622 10.4 255 6 100410 80
2007-02-09 15:57 51°26.083 2°48.631 12 259 6 100420 79
2007-02-09 15:58 51°26.093 2°48.64 11.8 256 5.9 100430 78
2007-02-09 15:59 51°26.102 2°48.65 10.9 254 6 100420 79
2007-02-09 16:00 51°26.112 2°48.662 10 253 6 100420 79
2007-02-09 16:01 51°26.094 2°48.678 9.1 38 5.9 100400 79
2007-02-09 16:02 51°26.068 2°48.629 7.7 36 6 100420 80
2007-02-09 16:03 51°26.031 2°48.566 7.1 31 6 100420 80
2007-02-09 16:04 51°25.997 2°48.497 7.9 35 6 100430 82
2007-02-09 16:05 51°25.979 2°48.477 8.2 40 6 100430 81
2007-02-09 16:06 51°25.971 2°48.483 5.3 261 6 100450 82
2007-02-09 16:07 51°25.967 2°48.496 6.4 262 5.9 100450 81
2007-02-09 16:08 51°25.967 2°48.513 12.5 256 6 100440 80
2007-02-09 16:09 51°25.971 2°48.529 11.6 256 5.9 100430 79
2007-02-09 16:10 51°25.989 2°48.536 9.7 260 5.9 100430 79
2007-02-09 16:11 51°26.003 2°48.544 6.1 263 5.9 100440 78
2007-02-09 16:12 51°26.014 2°48.554 6.6 261 5.9 100440 78
2007-02-09 16:13 51°26.024 2°48.566 11.7 255 5.9 100450 78
2007-02-09 16:14 51°26.034 2°48.58 11.1 253 5.9 100450 78
2007-02-09 16:15 51°26.038 2°48.598 10.9 256 5.9 100450 78
2007-02-09 16:16 51°26.013 2°48.586 7.1 31 6 100460 78
2007-02-09 16:17 51°26.003 2°48.519 6.5 34 6 100460 78
2007-02-09 16:18 51°25.995 2°48.473 8.6 31 5.9 100450 78
2007-02-09 16:19 51°25.994 2°48.468 7.9 34 6 100460 78
2007-02-09 16:20 51°25.995 2°48.472 6.2 262 6 100480 79
2007-02-09 16:21 51°25.999 2°48.482 6.7 263 6 100480 79
2007-02-09 16:22 51°26.004 2°48.496 7.5 258 6 100480 80
2007-02-09 16:23 51°26.01 2°48.514 5.7 263 6 100480 82
2007-02-09 16:24 51°26.014 2°48.533 9.6 254 6 100480 82
2007-02-09 16:25 51°26.021 2°48.554 8.6 253 6 100480 81
2007-02-09 16:26 51°26.02 2°48.574 7.7 261 5.9 100470 81
2007-02-09 16:27 51°26.002 2°48.568 8 34 6 100480 81
2007-02-09 16:28 51°26.006 2°48.527 5.6 31 5.9 100480 80
2007-02-09 16:29 51°26.022 2°48.501 7.5 33 6.1 100470 78
2007-02-09 16:30 51°26.039 2°48.486 7.3 39 6.3 100490 79
2007-02-09 16:31 51°26.057 2°48.471 6.1 29 6.2 100470 78
2007-02-09 16:32 51°26.076 2°48.458 6 36 6.1 100480 78
2007-02-09 16:33 51°26.097 2°48.447 9.6 38 6 100480 77
2007-02-09 16:34 51°26.121 2°48.437 8.7 38 6 100470 77
2007-02-09 16:35 51°26.127 2°48.398 7.1 36 6.1 100460 79
2007-02-09 16:36 51°26.083 2°48.431 11.1 240 6.1 100470 78
2007-02-09 16:37 51°26.049 2°48.485 12.3 255 6 100430 78
2007-02-09 16:38 51°26.014 2°48.493 9.9 257 6 100470 78
2007-02-09 16:39 51°26 2°48.507 10.9 258 6 100440 79
2007-02-09 16:40 51°25.996 2°48.526 11.5 253 6 100450 79
2007-02-09 16:41 51°25.999 2°48.548 10.6 251 6 100440 79
2007-02-09 16:42 51°25.951 2°48.601 13.4 240 6 100420 80
2007-02-09 16:43 51°25.788 2°48.699 11.8 241 6 100410 79
2007-02-09 16:44 51°25.607 2°48.8 13.9 238 6 100410 79
2007-02-09 16:45 51°25.427 2°48.987 16.2 32 6 100380 79
2007-02-09 16:46 51°25.245 2°49.184 17.1 32 6.1 100400 80
2007-02-09 16:47 51°25.052 2°49.349 15.4 239 6.1 100360 80
2007-02-09 16:48 51°24.842 2°49.464 15.7 240 6 100340 80
2007-02-09 16:49 51°24.634 2°49.569 14.1 243 6 100320 80
2007-02-09 16:50 51°24.422 2°49.672 15.1 242 6 100280 80
2007-02-09 16:51 51°24.216 2°49.776 13.9 245 6 100270 81
2007-02-09 16:52 51°24.005 2°49.885 15.6 241 6 100300 81
2007-02-09 16:53 51°23.804 2°49.994 16.8 245 6 100270 81
2007-02-09 16:54 51°23.595 2°50.101 18.2 242 6 100280 81
2007-02-09 16:55 51°23.385 2°50.206 13.1 243 6 100270 81
2007-02-09 16:56 51°23.18 2°50.295 15.6 244 6 100270 81
2007-02-09 16:57 51°22.967 2°50.393 16.6 245 6 100270 82
2007-02-09 16:58 51°22.76 2°50.481 12.8 245 6 100240 81
2007-02-09 16:59 51°22.547 2°50.571 13.6 244 6 100280 81
2007-02-09 17:00 51°22.342 2°50.663 14.2 239 6 100280 81
2007-02-09 17:01 51°22.129 2°50.759 14.8 244 6 100290 81
2007-02-09 17:02 51°21.922 2°50.848 13.8 244 6 100280 81
2007-02-09 17:03 51°21.711 2°50.935 13.5 239 6 100300 82
2007-02-09 17:04 51°21.504 2°51.01 14.6 236 6 100320 81
2007-02-09 17:05 51°21.299 2°51.086 15 236 6 100330 82
2007-02-09 17:06 51°21.083 2°51.175 15.1 33 6 100360 82
2007-02-09 17:07 51°20.873 2°51.254 14.3 237 6 100380 82
2007-02-09 17:08 51°20.655 2°51.332 13.2 232 6 100400 82
2007-02-09 17:09 51°20.444 2°51.414 13.8 237 6 100380 82
2007-02-09 17:10 51°20.225 2°51.491 12.6 239 6 100380 81
2007-02-09 17:11 51°20.012 2°51.563 12.9 233 6 100390 81
2007-02-09 17:12 51°19.79 2°51.633 15.2 240 6 100380 81
2007-02-09 17:13 51°19.575 2°51.696 13.1 32 6 100400 81
2007-02-09 17:14 51°19.358 2°51.765 12.7 34 6 100410 81
2007-02-09 17:15 51°19.143 2°51.838 13.6 36 5.9 100420 81
2007-02-09 17:16 51°18.933 2°51.916 13.3 37 5.9 100430 80
2007-02-09 17:17 51°18.722 2°52.006 13.4 37 5.9 100430 79
2007-02-09 17:18 51°18.516 2°52.13 14.6 33 5.9 100440 79
2007-02-09 17:19 51°18.311 2°52.264 14.2 32 5.9 100450 79
2007-02-09 17:20 51°18.105 2°52.385 14.6 37 5.9 100430 79
2007-02-09 17:21 51°17.901 2°52.519 13.8 317 5.9 100440 78
2007-02-09 17:22 51°17.7 2°52.663 15.7 316 5.9 100450 79
2007-02-09 17:23 51°17.504 2°52.827 14.5 322 5.9 100430 79
2007-02-09 17:24 51°17.325 2°53.04 13.7 320 5.8 100470 79
2007-02-09 17:25 51°17.144 2°53.248 13.2 321 5.8 100470 79
2007-02-09 17:26 51°16.959 2°53.449 13.4 322 5.8 100470 80
2007-02-09 17:27 51°16.77 2°53.664 14.1 319 5.7 100460 80
2007-02-09 17:28 51°16.592 2°53.879 13.3 322 5.7 100470 80
2007-02-09 17:29 51°16.412 2°54.098 12.6 321 5.7 100470 81
2007-02-09 17:30 51°16.301 2°54.234 9.3 316 5.6 100490 81
2007-02-09 17:31 51°16.255 2°54.327 8.1 318 5.5 100490 81
2007-02-09 17:32 51°16.264 2°54.347 5.3 36 5.5 100500 81
2007-02-09 17:33 51°16.277 2°54.357 6 36 5.5 100500 81
2007-02-09 17:34 51°16.29 2°54.368 7.3 242 5.5 100490 82
2007-02-09 17:35 51°16.208 2°54.368 10.8 31 5.5 100480 82
2007-02-09 17:36 51°15.99 2°54.424 11.3 34 5.5 100480 82
2007-02-09 17:37 51°15.782 2°54.439 10.1 36 5.5 100480 82
2007-02-09 17:38 51°15.571 2°54.399 10.1 34 5.5 100480 82
2007-02-09 17:39 51°15.355 2°54.39 9.6 316 5.5 100480 83
2007-02-09 17:40 51°15.146 2°54.427 12 37 5.5 100480 83
2007-02-09 17:41 51°14.93 2°54.496 10.6 32 5.5 100470 83
2007-02-09 17:42 51°14.724 2°54.606 10.4 317 5.5 100470 83
2007-02-09 17:43 51°14.541 2°54.796 11.3 319 5.5 100480 83
2007-02-09 17:44 51°14.376 2°55.04 11.5 324 5.5 100480 83
2007-02-09 17:45 51°14.249 2°55.276 10.2 321 5.4 100500 83
2007-02-09 17:46 51°14.105 2°55.419 10.1 321 5.4 100480 82
2007-02-09 17:47 51°13.96 2°55.521 7.6 320 5.4 100470 82
2007-02-09 17:48 51°13.838 2°55.611 6.5 324 5.4 100480 82
2007-02-09 17:49 51°13.741 2°55.731 6.4 320 5.4 100480 82
2007-02-09 17:50 51°13.677 2°55.854 7.9 324 5.4 100480 81
2007-02-09 17:51 51°13.633 2°55.962 6.3 328 5.4 100470 81
2007-02-09 17:52 51°13.608 2°56.054 4.3 330 5.3 100470 81
2007-02-09 17:53 51°13.599 2°56.088 5.2 321 5.3 100480 81